Weather in Panj

Tajikistan     37°14′08″N   69°05′58″E
В апреле 2022 года жителям России запретили посещать сайт meteo.paraplan.net по решению Генеральной прокуратуры. Аудитория сайта уменьшилась в 10 раз. Владельцы сайта не видят смысла в поддержке погодного сервера в таких условиях. Сайт будет закрыт в октябре.
temp.,
°C
wind,
m/s
gust,
m/s
humid.,
%
clouds,
%
prec.,
mm/h
press.,
hPa
HPBL,
m
6 october, thu
thu623:00+17se22190 0.0 101811
02:00+16se23210 0.0 101814
05:00+15ese11210 0.0 101911
08:00+19wsw01170 0.0 102094
11:00+24w32130 0.0 10191045
14:00+27wnw43110 0.0 10171912
17:00+25wnw45100 0.0 1016489
20:00+17wsw22160 0.0 101915
7 october, fri
fri723:00+15sse11170 0.0 102011
02:00+14ese11180 0.0 101911
05:00+13ene11190 0.0 102011
08:00+17ese11150 0.0 102187
11:00+23wsw11110 0.0 1020803
14:00+26wnw32100 0.0 10171414
17:00+25w23100 0.0 101660
20:00+18w11150 0.0 101811
8 october, sat
sat823:00+16e11160 0.0 101911
02:00+15e11170 0.0 102011
05:00+13ese11190 0.0 102011
08:00+17ese22150 0.0 102279
11:00+23wsw221011 0.0 1021807
14:00+26w32811 0.0 10181540
17:00+25wsw3385 0.0 101869
20:00+18wsw11120 0.0 102011
9 october, sun
sun923:00+16ese11130 0.0 102011
02:00+15ese11140 0.0 102011
05:00+13e22150 0.0 102010
08:00+17ese12120 0.0 102173
11:00+24sw1190 0.0 1020798
14:00+27w3270 0.0 10171417
17:00+25wsw2390 0.0 101647
20:00+18sw11130 0.0 101811
10 october, mon
mon1023:00+16se11130 0.0 101911
02:00+15ese11140 0.0 101911
05:00+14e22160 0.0 101910
08:00+17ese22130 0.0 102071
11:00+24sw1190 0.0 1019800
14:00+26wnw2270 0.0 10151452
17:00+25w2390 0.0 101439
20:00+18w11140 0.0 101511